Tracking 22836 objects as of 18-Apr-2021
HD Live streaming from Space Station
objects crossing your sky now

DELTA 1 DEB

Track DELTA 1 DEB now!
10-day predictions


NORAD ID: 7014
Int'l Code: 1973-086E
Perigee: 875.4 km
Apogee: 1,488.2 km
Inclination: 101.7 °
Period: 108.9 minutes
Semi major axis: 7552 km
RCS: 0.109 m2 (medium)
Launch date: November 6, 1973
Source: United States (US)
Launch site: AIR FORCE WESTERN TEST RANGE (AFWTR)

Note: This is SATELLITE DEBRIS
aabbcc
Your satellite tracking list
Your tracking list is empty




NASA's NSSDC Master Catalog

Two Line Element Set (TLE):
1 07014U 73086E   21107.75343203 -.00000006  00000-0  71656-4 0  9990
2 07014 101.7356 278.7351 0405625 110.3727 254.1436 13.22637088286824
Source of the keplerian elements: AFSPC